iso_date,epoch_date,Year,Hour,Min,DOY,POS_DOY,Lat,Lon,BP,Ts,Ta,has_bp,has_ts,has_ta,BuoyID,Buoy_Type,Buoy_Owner,Logistics,Hemisphere
2014-12-27T16:00:28Z,1419696029,2014,16,0,361.667,361.667,-70.51281,-9.49765,-999.00,-999.00,-999.0,no,no,no,300234060798460,IMB,AWI-USIABP,unknown,South
2014-12-27T22:00:28Z,1419717629,2014,22,0,361.917,361.917,-70.55138,-7.99307,-999.00,-999.00,-999.0,no,no,no,300234060798460,IMB,AWI-USIABP,unknown,South
2014-12-28T04:00:28Z,1419739229,2014,4,0,362.167,362.167,-70.52255,-7.87167,-999.00,-999.00,-999.0,no,no,no,300234060798460,IMB,AWI-USIABP,unknown,South
2014-12-28T10:00:28Z,1419760829,2014,10,0,362.417,362.417,-70.52255,-7.87167,-999.00,-999.00,-999.0,no,no,no,300234060798460,IMB,AWI-USIABP,unknown,South
2014-12-28T16:00:28Z,1419782429,2014,16,0,362.667,362.667,-70.51788,-7.97812,-999.00,-999.00,-999.0,no,no,no,300234060798460,IMB,AWI-USIABP,unknown,South
2014-12-28T22:00:28Z,1419804029,2014,22,0,362.917,362.917,-70.52255,-7.87167,-999.00,-999.00,-999.0,no,no,no,300234060798460,IMB,AWI-USIABP,unknown,South
2014-12-29T04:00:28Z,1419825629,2014,4,0,363.167,363.167,-70.52255,-7.87167,-999.00,-999.00,-999.0,no,no,no,300234060798460,IMB,AWI-USIABP,unknown,South
2014-12-29T10:00:28Z,1419847229,2014,10,0,363.417,363.417,-70.52255,-7.87167,-999.00,-999.00,-999.0,no,no,no,300234060798460,IMB,AWI-USIABP,unknown,South
2014-12-29T16:00:28Z,1419868829,2014,16,0,363.667,363.667,-70.55138,-7.99307,-999.00,-999.00,-999.0,no,no,no,300234060798460,IMB,AWI-USIABP,unknown,South
2014-12-29T22:00:28Z,1419890429,2014,22,0,363.917,363.917,-70.52255,-7.87167,-999.00,-999.00,-999.0,no,no,no,300234060798460,IMB,AWI-USIABP,unknown,South
2014-12-30T04:00:28Z,1419912029,2014,4,0,364.167,364.167,-70.55138,-7.99307,-999.00,-999.00,-999.0,no,no,no,300234060798460,IMB,AWI-USIABP,unknown,South
2014-12-30T10:00:28Z,1419933629,2014,10,0,364.417,364.417,-70.51788,-7.97812,-999.00,-999.00,-999.0,no,no,no,300234060798460,IMB,AWI-USIABP,unknown,South
2014-12-30T16:00:28Z,1419955229,2014,16,0,364.667,364.667,-70.52715,-7.76517,-999.00,-999.00,-999.0,no,no,no,300234060798460,IMB,AWI-USIABP,unknown,South
2014-12-30T22:00:28Z,1419976829,2014,22,0,364.917,364.917,-70.55605,-7.88642,-999.00,-999.00,-999.0,no,no,no,300234060798460,IMB,AWI-USIABP,unknown,South
2014-12-31T04:00:28Z,1419998429,2014,4,0,365.167,365.167,-70.52255,-7.87167,-999.00,-999.00,-999.0,no,no,no,300234060798460,IMB,AWI-USIABP,unknown,South
2014-12-31T10:00:28Z,1420020029,2014,10,0,365.417,365.417,-70.55138,-7.99307,-999.00,-999.00,-999.0,no,no,no,300234060798460,IMB,AWI-USIABP,unknown,South
2014-12-31T16:00:28Z,1420041629,2014,16,0,365.667,365.667,-70.51788,-7.97812,-999.00,-999.00,-999.0,no,no,no,300234060798460,IMB,AWI-USIABP,unknown,South
2014-12-31T22:00:28Z,1420063229,2014,22,0,365.917,365.917,-70.49365,-7.75067,-999.00,-999.00,-999.0,no,no,no,300234060798460,IMB,AWI-USIABP,unknown,South
2015-01-01T04:00:28Z,1420084829,2015,4,0,1.167,1.167,-70.52255,-7.87167,-999.00,-999.00,-999.0,no,no,no,300234060798460,IMB,AWI-USIABP,unknown,South
2015-01-01T10:00:28Z,1420106429,2015,10,0,1.417,1.417,-70.52255,-7.87167,-999.00,-999.00,-999.0,no,no,no,300234060798460,IMB,AWI-USIABP,unknown,South
2015-01-01T16:00:28Z,1420128029,2015,16,0,1.667,1.667,-70.51788,-7.97812,-999.00,-999.00,-999.0,no,no,no,300234060798460,IMB,AWI-USIABP,unknown,South
2015-01-01T22:00:28Z,1420149629,2015,22,0,1.917,1.917,-70.55605,-7.88642,-999.00,-999.00,-999.0,no,no,no,300234060798460,IMB,AWI-USIABP,unknown,South
2015-01-02T04:00:28Z,1420171229,2015,4,0,2.167,2.167,-70.55605,-7.88642,-999.00,-999.00,-999.0,no,no,no,300234060798460,IMB,AWI-USIABP,unknown,South
2015-01-02T10:00:28Z,1420192829,2015,10,0,2.417,2.417,-70.55138,-7.99307,-999.00,-999.00,-999.0,no,no,no,300234060798460,IMB,AWI-USIABP,unknown,South
2015-01-02T16:00:28Z,1420214429,2015,16,0,2.667,2.667,-70.55605,-7.88642,-999.00,-999.00,-999.0,no,no,no,300234060798460,IMB,AWI-USIABP,unknown,South
2015-01-02T22:00:28Z,1420236029,2015,22,0,2.917,2.917,-70.28965,-3.82821,-999.00,-999.00,-999.0,no,no,no,300234060798460,IMB,AWI-USIABP,unknown,South
2015-01-03T04:00:28Z,1420257629,2015,4,0,3.167,3.167,-70.52255,-7.87167,-999.00,-999.00,-999.0,no,no,no,300234060798460,IMB,AWI-USIABP,unknown,South
2015-01-03T10:00:28Z,1420279229,2015,10,0,3.417,3.417,-70.55138,-7.99307,-999.00,-999.00,-999.0,no,no,no,300234060798460,IMB,AWI-USIABP,unknown,South
2015-01-03T16:00:28Z,1420300829,2015,16,0,3.667,3.667,-70.51788,-7.97812,-999.00,-999.00,-999.0,no,no,no,300234060798460,IMB,AWI-USIABP,unknown,South
2015-01-03T22:00:28Z,1420322429,2015,22,0,3.917,3.917,-70.51788,-7.97812,-999.00,-999.00,-999.0,no,no,no,300234060798460,IMB,AWI-USIABP,unknown,South
2015-01-04T04:00:28Z,1420344029,2015,4,0,4.167,4.167,-70.52255,-7.87167,-999.00,-999.00,-999.0,no,no,no,300234060798460,IMB,AWI-USIABP,unknown,South
2015-01-04T10:00:28Z,1420365629,2015,10,0,4.417,4.417,-70.52255,-7.87167,-999.00,-999.00,-999.0,no,no,no,300234060798460,IMB,AWI-USIABP,unknown,South
2015-01-04T16:00:28Z,1420387229,2015,16,0,4.667,4.667,-70.55138,-7.99307,-999.00,-999.00,-999.0,no,no,no,300234060798460,IMB,AWI-USIABP,unknown,South
2015-01-04T22:00:28Z,1420408829,2015,22,0,4.917,4.917,-70.55138,-7.99307,-999.00,-999.00,-999.0,no,no,no,300234060798460,IMB,AWI-USIABP,unknown,South
2015-01-05T04:00:28Z,1420430429,2015,4,0,5.167,5.167,-70.51788,-7.97812,-999.00,-999.00,-999.0,no,no,no,300234060798460,IMB,AWI-USIABP,unknown,South
2015-01-05T10:00:28Z,1420452029,2015,10,0,5.417,5.417,-70.55138,-7.99307,-999.00,-999.00,-999.0,no,no,no,300234060798460,IMB,AWI-USIABP,unknown,South
2015-01-05T16:00:28Z,1420473629,2015,16,0,5.667,5.667,-70.52715,-7.76517,-999.00,-999.00,-999.0,no,no,no,300234060798460,IMB,AWI-USIABP,unknown,South
2015-01-05T22:00:28Z,1420495229,2015,22,0,5.917,5.917,-70.52255,-7.87167,-999.00,-999.00,-999.0,no,no,no,300234060798460,IMB,AWI-USIABP,unknown,South
2015-01-06T04:00:28Z,1420516829,2015,4,0,6.167,6.167,-70.52255,-7.87167,-999.00,-999.00,-999.0,no,no,no,300234060798460,IMB,AWI-USIABP,unknown,South
2015-01-06T10:00:28Z,1420538429,2015,10,0,6.417,6.417,-70.55138,-7.99307,-999.00,-999.00,-999.0,no,no,no,300234060798460,IMB,AWI-USIABP,unknown,South
2015-01-06T16:00:28Z,1420560029,2015,16,0,6.667,6.667,-70.51788,-7.97812,-999.00,-999.00,-999.0,no,no,no,300234060798460,IMB,AWI-USIABP,unknown,South
2015-01-06T22:00:28Z,1420581629,2015,22,0,6.917,6.917,-70.52255,-7.87167,-999.00,-999.00,-999.0,no,no,no,300234060798460,IMB,AWI-USIABP,unknown,South
2015-01-07T04:00:28Z,1420603229,2015,4,0,7.167,7.167,-70.51788,-7.97812,-999.00,-999.00,-999.0,no,no,no,300234060798460,IMB,AWI-USIABP,unknown,South
2015-01-07T10:00:28Z,1420624829,2015,10,0,7.417,7.417,-70.55605,-7.88642,-999.00,-999.00,-999.0,no,no,no,300234060798460,IMB,AWI-USIABP,unknown,South
2015-01-07T16:00:28Z,1420646429,2015,16,0,7.667,7.667,-70.55138,-7.99307,-999.00,-999.00,-999.0,no,no,no,300234060798460,IMB,AWI-USIABP,unknown,South
2015-01-07T22:00:28Z,1420668029,2015,22,0,7.917,7.917,-70.56799,-7.88642,-999.00,-999.00,-999.0,no,no,no,300234060798460,IMB,AWI-USIABP,unknown,South
2015-01-08T04:00:28Z,1420689629,2015,4,0,8.167,8.167,-70.53168,-7.65861,-999.00,-999.00,-999.0,no,no,no,300234060798460,IMB,AWI-USIABP,unknown,South
2015-01-08T10:00:28Z,1420711229,2015,10,0,8.417,8.417,-70.55138,-7.99307,-999.00,-999.00,-999.0,no,no,no,300234060798460,IMB,AWI-USIABP,unknown,South
2015-01-08T16:00:28Z,1420732829,2015,16,0,8.667,8.667,-70.55138,-7.99307,-999.00,-999.00,-999.0,no,no,no,300234060798460,IMB,AWI-USIABP,unknown,South
2015-01-08T22:00:28Z,1420754429,2015,22,0,8.917,8.917,-70.52255,-7.87167,-999.00,-999.00,-999.0,no,no,no,300234060798460,IMB,AWI-USIABP,unknown,South
2015-01-09T04:00:28Z,1420776029,2015,4,0,9.167,9.167,-70.51788,-7.97812,-999.00,-999.00,-999.0,no,no,no,300234060798460,IMB,AWI-USIABP,unknown,South
2015-01-09T10:00:28Z,1420797629,2015,10,0,9.417,9.417,-70.55138,-7.99307,-999.00,-999.00,-999.0,no,no,no,300234060798460,IMB,AWI-USIABP,unknown,South
2015-01-09T16:00:28Z,1420819229,2015,16,0,9.667,9.667,-70.51788,-7.97812,-999.00,-999.00,-999.0,no,no,no,300234060798460,IMB,AWI-USIABP,unknown,South
2015-01-09T22:00:28Z,1420840829,2015,22,0,9.917,9.917,-70.52255,-7.87167,-999.00,-999.00,-999.0,no,no,no,300234060798460,IMB,AWI-USIABP,unknown,South
2015-01-10T04:00:28Z,1420862429,2015,4,0,10.167,10.167,-70.52255,-7.87167,-999.00,-999.00,-999.0,no,no,no,300234060798460,IMB,AWI-USIABP,unknown,South
2015-01-10T10:00:28Z,1420884029,2015,10,0,10.417,10.417,-70.52255,-7.87167,-999.00,-999.00,-999.0,no,no,no,300234060798460,IMB,AWI-USIABP,unknown,South
2015-01-10T16:00:28Z,1420905629,2015,16,0,10.667,10.667,-70.5968,-8.00807,-999.00,-999.00,-999.0,no,no,no,300234060798460,IMB,AWI-USIABP,unknown,South
2015-01-10T22:00:28Z,1420927229,2015,22,0,10.917,10.917,-70.6061,-7.79433,-999.00,-999.00,-999.0,no,no,no,300234060798460,IMB,AWI-USIABP,unknown,South
2015-01-11T04:00:28Z,1420948829,2015,4,0,11.167,11.167,-70.78407,-11.73719,-999.00,-999.00,-999.0,no,no,no,300234060798460,IMB,AWI-USIABP,unknown,South
2015-01-11T10:00:28Z,1420970429,2015,10,0,11.417,11.417,-70.52255,-7.87167,-999.00,-999.00,-999.0,no,no,no,300234060798460,IMB,AWI-USIABP,unknown,South
2015-01-11T16:00:28Z,1420992029,2015,16,0,11.667,11.667,-70.55138,-7.99307,-999.00,-999.00,-999.0,no,no,no,300234060798460,IMB,AWI-USIABP,unknown,South
2015-01-11T22:00:28Z,1421013629,2015,22,0,11.917,11.917,-70.52255,-7.87167,-999.00,-999.00,-999.0,no,no,no,300234060798460,IMB,AWI-USIABP,unknown,South
2015-01-12T04:00:28Z,1421035229,2015,4,0,12.167,12.167,-70.55138,-7.99307,-999.00,-999.00,-999.0,no,no,no,300234060798460,IMB,AWI-USIABP,unknown,South
2015-01-12T10:00:28Z,1421056829,2015,10,0,12.417,12.417,-70.55138,-7.99307,-999.00,-999.00,-999.0,no,no,no,300234060798460,IMB,AWI-USIABP,unknown,South
2015-01-12T16:00:28Z,1421078429,2015,16,0,12.667,12.667,-70.56799,-7.88642,-999.00,-999.00,-999.0,no,no,no,300234060798460,IMB,AWI-USIABP,unknown,South
2015-01-12T22:00:28Z,1421100029,2015,22,0,12.917,12.917,-70.51788,-7.97812,-999.00,-999.00,-999.0,no,no,no,300234060798460,IMB,AWI-USIABP,unknown,South
2015-01-13T04:00:28Z,1421121629,2015,4,0,13.167,13.167,-70.51788,-7.97812,-999.00,-999.00,-999.0,no,no,no,300234060798460,IMB,AWI-USIABP,unknown,South
2015-01-13T10:00:28Z,1421143229,2015,10,0,13.417,13.417,-70.52255,-7.87167,-999.00,-999.00,-999.0,no,no,no,300234060798460,IMB,AWI-USIABP,unknown,South
2015-01-13T16:00:28Z,1421164829,2015,16,0,13.667,13.667,-70.54664,-8.09966,-999.00,-999.00,-999.0,no,no,no,300234060798460,IMB,AWI-USIABP,unknown,South
2015-01-13T22:00:28Z,1421186429,2015,22,0,13.917,13.917,-70.56066,-7.77972,-999.00,-999.00,-999.0,no,no,no,300234060798460,IMB,AWI-USIABP,unknown,South
2015-01-14T04:00:28Z,1421208029,2015,4,0,14.167,14.167,-71.09318,-15.80854,-999.00,-999.00,-999.0,no,no,no,300234060798460,IMB,AWI-USIABP,unknown,South
2015-01-14T10:00:28Z,1421229629,2015,10,0,14.417,14.417,-70.52255,-7.87167,-999.00,-999.00,-999.0,no,no,no,300234060798460,IMB,AWI-USIABP,unknown,South
2015-01-14T16:00:28Z,1421251229,2015,16,0,14.667,14.667,-70.55138,-7.99307,-999.00,-999.00,-999.0,no,no,no,300234060798460,IMB,AWI-USIABP,unknown,South
2015-01-14T22:00:28Z,1421272829,2015,22,0,14.917,14.917,-70.51316,-8.08452,-999.00,-999.00,-999.0,no,no,no,300234060798460,IMB,AWI-USIABP,unknown,South
2015-01-15T04:00:28Z,1421294429,2015,4,0,15.167,15.167,-70.51788,-7.97812,-999.00,-999.00,-999.0,no,no,no,300234060798460,IMB,AWI-USIABP,unknown,South
2015-01-15T10:00:28Z,1421316029,2015,10,0,15.417,15.417,-70.55138,-7.99307,-999.00,-999.00,-999.0,no,no,no,300234060798460,IMB,AWI-USIABP,unknown,South
2015-01-15T16:00:28Z,1421337629,2015,16,0,15.667,15.667,-70.77136,-4.1399,-999.00,-999.00,-999.0,no,no,no,300234060798460,IMB,AWI-USIABP,unknown,South
2015-01-15T22:00:28Z,1421359229,2015,22,0,15.917,15.917,-70.51788,-7.97812,-999.00,-999.00,-999.0,no,no,no,300234060798460,IMB,AWI-USIABP,unknown,South
2015-01-16T04:00:28Z,1421380829,2015,4,0,16.167,16.167,-70.52255,-7.87167,-999.00,-999.00,-999.0,no,no,no,300234060798460,IMB,AWI-USIABP,unknown,South
2015-01-16T10:00:28Z,1421402429,2015,10,0,16.417,16.417,-70.52255,-7.87167,-999.00,-999.00,-999.0,no,no,no,300234060798460,IMB,AWI-USIABP,unknown,South
2015-01-16T16:00:28Z,1421424029,2015,16,0,16.667,16.667,-70.5904,-7.35238,-999.00,-999.00,-999.0,no,no,no,300234060798460,IMB,AWI-USIABP,unknown,South
2015-01-16T22:00:28Z,1421445629,2015,22,0,16.917,16.917,-70.56066,-7.77972,-999.00,-999.00,-999.0,no,no,no,300234060798460,IMB,AWI-USIABP,unknown,South
2015-01-17T04:03:21Z,1421467402,2015,4,3,17.169,17.169,-70.52255,-7.87167,-999.00,-999.00,-999.0,no,no,no,300234060798460,IMB,AWI-USIABP,unknown,South
2015-01-17T10:03:21Z,1421489002,2015,10,3,17.419,17.419,-70.52255,-7.87167,-999.00,-999.00,-999.0,no,no,no,300234060798460,IMB,AWI-USIABP,unknown,South
2015-01-17T16:00:28Z,1421510429,2015,16,0,17.667,17.667,-70.55138,-7.99307,-999.00,-999.00,-999.0,no,no,no,300234060798460,IMB,AWI-USIABP,unknown,South
2015-01-17T22:00:28Z,1421532029,2015,22,0,17.917,17.917,-70.51788,-7.97812,-999.00,-999.00,-999.0,no,no,no,300234060798460,IMB,AWI-USIABP,unknown,South
2015-01-18T04:00:28Z,1421553629,2015,4,0,18.167,18.167,-70.51788,-7.97812,-999.00,-999.00,-999.0,no,no,no,300234060798460,IMB,AWI-USIABP,unknown,South
2015-01-18T10:06:14Z,1421575574,2015,10,6,18.421,18.421,-70.52255,-7.87167,-999.00,-999.00,-999.0,no,no,no,300234060798460,IMB,AWI-USIABP,unknown,South
2015-01-18T16:00:28Z,1421596829,2015,16,0,18.667,18.667,-70.53699,-8.31267,-999.00,-999.00,-999.0,no,no,no,300234060798460,IMB,AWI-USIABP,unknown,South
2015-01-18T22:00:28Z,1421618429,2015,22,0,18.917,18.917,-70.51788,-7.97812,-999.00,-999.00,-999.0,no,no,no,300234060798460,IMB,AWI-USIABP,unknown,South
2015-01-19T04:00:28Z,1421640029,2015,4,0,19.167,19.167,-70.52255,-7.87167,-999.00,-999.00,-999.0,no,no,no,300234060798460,IMB,AWI-USIABP,unknown,South
2015-01-19T10:00:28Z,1421661629,2015,10,0,19.417,19.417,-70.52255,-7.87167,-999.00,-999.00,-999.0,no,no,no,300234060798460,IMB,AWI-USIABP,unknown,South
2015-01-19T16:00:28Z,1421683229,2015,16,0,19.667,19.667,-70.56521,-7.67296,-999.00,-999.00,-999.0,no,no,no,300234060798460,IMB,AWI-USIABP,unknown,South
2015-01-19T22:00:28Z,1421704829,2015,22,0,19.917,19.917,-70.49822,0.64495,-999.00,-999.00,-999.0,no,no,no,300234060798460,IMB,AWI-USIABP,unknown,South
2015-01-20T04:00:28Z,1421726429,2015,4,0,20.167,20.167,-70.55138,-7.99307,-999.00,-999.00,-999.0,no,no,no,300234060798460,IMB,AWI-USIABP,unknown,South
2015-01-20T10:00:28Z,1421748029,2015,10,0,20.417,20.417,-70.52255,-7.87167,-999.00,-999.00,-999.0,no,no,no,300234060798460,IMB,AWI-USIABP,unknown,South
2015-01-20T16:00:28Z,1421769629,2015,16,0,20.667,20.667,-70.55138,-7.99307,-999.00,-999.00,-999.0,no,no,no,300234060798460,IMB,AWI-USIABP,unknown,South
2015-01-20T22:00:28Z,1421791229,2015,22,0,20.917,20.917,-70.51788,-7.97812,-999.00,-999.00,-999.0,no,no,no,300234060798460,IMB,AWI-USIABP,unknown,South
2015-01-21T04:00:28Z,1421812829,2015,4,0,21.167,21.167,-70.51788,-7.97812,-999.00,-999.00,-999.0,no,no,no,300234060798460,IMB,AWI-USIABP,unknown,South
2015-01-21T10:00:28Z,1421834429,2015,10,0,21.417,21.417,-70.55138,-7.99307,-999.00,-999.00,-999.0,no,no,no,300234060798460,IMB,AWI-USIABP,unknown,South
2015-01-21T16:00:28Z,1421856029,2015,16,0,21.667,21.667,-70.46001,-12.42417,-999.00,-999.00,-999.0,no,no,no,300234060798460,IMB,AWI-USIABP,unknown,South
2015-01-21T22:00:28Z,1421877629,2015,22,0,21.917,21.917,-70.51788,-7.97812,-999.00,-999.00,-999.0,no,no,no,300234060798460,IMB,AWI-USIABP,unknown,South
2015-01-22T04:00:28Z,1421899229,2015,4,0,22.167,22.167,-70.55138,-7.99307,-999.00,-999.00,-999.0,no,no,no,300234060798460,IMB,AWI-USIABP,unknown,South
2015-01-22T10:00:28Z,1421920829,2015,10,0,22.417,22.417,-70.52255,-7.87167,-999.00,-999.00,-999.0,no,no,no,300234060798460,IMB,AWI-USIABP,unknown,South
2015-01-22T16:00:28Z,1421942429,2015,16,0,22.667,22.667,-70.52255,-7.87167,-999.00,-999.00,-999.0,no,no,no,300234060798460,IMB,AWI-USIABP,unknown,South
2015-01-22T22:00:28Z,1421964029,2015,22,0,22.917,22.917,-70.52255,-7.87167,-999.00,-999.00,-999.0,no,no,no,300234060798460,IMB,AWI-USIABP,unknown,South
2015-01-23T04:00:28Z,1421985629,2015,4,0,23.167,23.167,-70.55138,-7.99307,-999.00,-999.00,-999.0,no,no,no,300234060798460,IMB,AWI-USIABP,unknown,South
2015-01-23T10:00:28Z,1422007229,2015,10,0,23.417,23.417,-70.52715,-7.76517,-999.00,-999.00,-999.0,no,no,no,300234060798460,IMB,AWI-USIABP,unknown,South
2015-01-23T16:00:28Z,1422028829,2015,16,0,23.667,23.667,-70.55138,-7.99307,-999.00,-999.00,-999.0,no,no,no,300234060798460,IMB,AWI-USIABP,unknown,South
2015-01-23T22:00:28Z,1422050429,2015,22,0,23.917,23.917,-70.51316,-8.08452,-999.00,-999.00,-999.0,no,no,no,300234060798460,IMB,AWI-USIABP,unknown,South
2015-01-24T04:00:28Z,1422072029,2015,4,0,24.167,24.167,-70.51788,-7.97812,-999.00,-999.00,-999.0,no,no,no,300234060798460,IMB,AWI-USIABP,unknown,South
2015-01-24T10:00:28Z,1422093629,2015,10,0,24.417,24.417,-70.55138,-7.99307,-999.00,-999.00,-999.0,no,no,no,300234060798460,IMB,AWI-USIABP,unknown,South
2015-01-24T16:00:28Z,1422115229,2015,16,0,24.667,24.667,-70.55605,-7.88642,-999.00,-999.00,-999.0,no,no,no,300234060798460,IMB,AWI-USIABP,unknown,South
2015-01-24T22:00:28Z,1422136829,2015,22,0,24.917,24.917,-70.51788,-7.97812,-999.00,-999.00,-999.0,no,no,no,300234060798460,IMB,AWI-USIABP,unknown,South
2015-01-25T04:00:28Z,1422158429,2015,4,0,25.167,25.167,-70.55138,-7.99307,-999.00,-999.00,-999.0,no,no,no,300234060798460,IMB,AWI-USIABP,unknown,South
2015-01-25T10:00:28Z,1422180029,2015,10,0,25.417,25.417,-70.52255,-7.87167,-999.00,-999.00,-999.0,no,no,no,300234060798460,IMB,AWI-USIABP,unknown,South
2015-01-25T16:00:28Z,1422201629,2015,16,0,25.667,25.667,-70.64419,-7.70185,-999.00,-999.00,-999.0,no,no,no,300234060798460,IMB,AWI-USIABP,unknown,South
2015-01-25T22:00:28Z,1422223229,2015,22,0,25.917,25.917,-70.306,-4.57816,-999.00,-999.00,-999.0,no,no,no,300234060798460,IMB,AWI-USIABP,unknown,South
2015-01-26T04:00:28Z,1422244829,2015,4,0,26.167,26.167,-70.55138,-7.99307,-999.00,-999.00,-999.0,no,no,no,300234060798460,IMB,AWI-USIABP,unknown,South
2015-01-26T10:00:28Z,1422266429,2015,10,0,26.417,26.417,-70.52255,-7.87167,-999.00,-999.00,-999.0,no,no,no,300234060798460,IMB,AWI-USIABP,unknown,South
2015-01-26T16:00:28Z,1422288029,2015,16,0,26.667,26.667,-70.55138,-7.99307,-999.00,-999.00,-999.0,no,no,no,300234060798460,IMB,AWI-USIABP,unknown,South
2015-01-26T22:00:28Z,1422309629,2015,22,0,26.917,26.917,-70.51788,-7.97812,-999.00,-999.00,-999.0,no,no,no,300234060798460,IMB,AWI-USIABP,unknown,South
2015-01-27T04:00:28Z,1422331229,2015,4,0,27.167,27.167,-70.51788,-7.97812,-999.00,-999.00,-999.0,no,no,no,300234060798460,IMB,AWI-USIABP,unknown,South
2015-01-27T10:00:28Z,1422352829,2015,10,0,27.417,27.417,-70.55138,-7.99307,-999.00,-999.00,-999.0,no,no,no,300234060798460,IMB,AWI-USIABP,unknown,South
2015-01-27T16:00:28Z,1422374429,2015,16,0,27.667,27.667,-70.5968,-8.00807,-999.00,-999.00,-999.0,no,no,no,300234060798460,IMB,AWI-USIABP,unknown,South
2015-01-27T22:00:28Z,1422396029,2015,22,0,27.917,27.917,-70.51788,-7.97812,-999.00,-999.00,-999.0,no,no,no,300234060798460,IMB,AWI-USIABP,unknown,South
2015-01-28T04:00:28Z,1422417629,2015,4,0,28.167,28.167,-70.55138,-7.99307,-999.00,-999.00,-999.0,no,no,no,300234060798460,IMB,AWI-USIABP,unknown,South
2015-01-28T10:00:28Z,1422439229,2015,10,0,28.417,28.417,-70.52255,-7.87167,-999.00,-999.00,-999.0,no,no,no,300234060798460,IMB,AWI-USIABP,unknown,South
2015-01-28T16:00:28Z,1422460829,2015,16,0,28.667,28.667,-70.55605,-7.88642,-999.00,-999.00,-999.0,no,no,no,300234060798460,IMB,AWI-USIABP,unknown,South
2015-01-28T22:00:28Z,1422482429,2015,22,0,28.917,28.917,-70.55548,-8.64791,-999.00,-999.00,-999.0,no,no,no,300234060798460,IMB,AWI-USIABP,unknown,South
2015-01-29T04:00:28Z,1422504029,2015,4,0,29.167,29.167,-70.55138,-7.99307,-999.00,-999.00,-999.0,no,no,no,300234060798460,IMB,AWI-USIABP,unknown,South
2015-01-29T10:00:28Z,1422525629,2015,10,0,29.417,29.417,-70.52715,-7.76517,-999.00,-999.00,-999.0,no,no,no,300234060798460,IMB,AWI-USIABP,unknown,South
2015-01-29T16:00:28Z,1422547229,2015,16,0,29.667,29.667,-70.55605,-7.88642,-999.00,-999.00,-999.0,no,no,no,300234060798460,IMB,AWI-USIABP,unknown,South
2015-01-29T22:00:28Z,1422568829,2015,22,0,29.917,29.917,-70.51788,-7.97812,-999.00,-999.00,-999.0,no,no,no,300234060798460,IMB,AWI-USIABP,unknown,South
2015-01-30T04:00:28Z,1422590429,2015,4,0,30.167,30.167,-70.51788,-7.97812,-999.00,-999.00,-999.0,no,no,no,300234060798460,IMB,AWI-USIABP,unknown,South
2015-01-30T10:00:28Z,1422612029,2015,10,0,30.417,30.417,-70.55605,-7.88642,-999.00,-999.00,-999.0,no,no,no,300234060798460,IMB,AWI-USIABP,unknown,South
2015-01-30T16:00:28Z,1422633629,2015,16,0,30.667,30.667,-70.55605,-7.88642,-999.00,-999.00,-999.0,no,no,no,300234060798460,IMB,AWI-USIABP,unknown,South
2015-01-30T22:00:28Z,1422655229,2015,22,0,30.917,30.917,-70.51788,-7.97812,-999.00,-999.00,-999.0,no,no,no,300234060798460,IMB,AWI-USIABP,unknown,South
2015-01-31T04:00:28Z,1422676829,2015,4,0,31.167,31.167,-70.55138,-7.99307,-999.00,-999.00,-999.0,no,no,no,300234060798460,IMB,AWI-USIABP,unknown,South
2015-01-31T10:00:28Z,1422698429,2015,10,0,31.417,31.417,-70.55138,-7.99307,-999.00,-999.00,-999.0,no,no,no,300234060798460,IMB,AWI-USIABP,unknown,South
2015-01-31T16:00:28Z,1422720029,2015,16,0,31.667,31.667,-70.55605,-7.88642,-999.00,-999.00,-999.0,no,no,no,300234060798460,IMB,AWI-USIABP,unknown,South
2015-01-31T22:00:28Z,1422741629,2015,22,0,31.917,31.917,-70.871,-12.68305,-999.00,-999.00,-999.0,no,no,no,300234060798460,IMB,AWI-USIABP,unknown,South
2015-02-01T04:00:28Z,1422763229,2015,4,0,32.167,32.167,-70.55138,-7.99307,-999.00,-999.00,-999.0,no,no,no,300234060798460,IMB,AWI-USIABP,unknown,South
2015-02-01T10:00:28Z,1422784829,2015,10,0,32.417,32.417,-70.55605,-7.88642,-999.00,-999.00,-999.0,no,no,no,300234060798460,IMB,AWI-USIABP,unknown,South
2015-02-01T16:00:28Z,1422806429,2015,16,0,32.667,32.667,-70.51788,-7.97812,-999.00,-999.00,-999.0,no,no,no,300234060798460,IMB,AWI-USIABP,unknown,South
2015-02-01T22:00:28Z,1422828029,2015,22,0,32.917,32.917,-70.51788,-7.97812,-999.00,-999.00,-999.0,no,no,no,300234060798460,IMB,AWI-USIABP,unknown,South
2015-02-02T04:00:28Z,1422849629,2015,4,0,33.167,33.167,-70.51788,-7.97812,-999.00,-999.00,-999.0,no,no,no,300234060798460,IMB,AWI-USIABP,unknown,South
2015-02-02T10:00:28Z,1422871229,2015,10,0,33.417,33.417,-70.51788,-7.97812,-999.00,-999.00,-999.0,no,no,no,300234060798460,IMB,AWI-USIABP,unknown,South
2015-02-02T16:00:28Z,1422892829,2015,16,0,33.667,33.667,-70.5968,-8.00807,-999.00,-999.00,-999.0,no,no,no,300234060798460,IMB,AWI-USIABP,unknown,South
2015-02-02T22:00:28Z,1422914429,2015,22,0,33.917,33.917,-70.51788,-7.97812,-999.00,-999.00,-999.0,no,no,no,300234060798460,IMB,AWI-USIABP,unknown,South
2015-02-03T04:00:28Z,1422936029,2015,4,0,34.167,34.167,-70.55138,-7.99307,-999.00,-999.00,-999.0,no,no,no,300234060798460,IMB,AWI-USIABP,unknown,South
2015-02-03T10:00:28Z,1422957629,2015,10,0,34.417,34.417,-70.55138,-7.99307,-999.00,-999.00,-999.0,no,no,no,300234060798460,IMB,AWI-USIABP,unknown,South
2015-02-03T16:00:28Z,1422979229,2015,16,0,34.667,34.667,-70.52255,-7.87167,-999.00,-999.00,-999.0,no,no,no,300234060798460,IMB,AWI-USIABP,unknown,South
2015-02-03T22:00:28Z,1423000829,2015,22,0,34.917,34.917,-70.51788,-7.97812,-999.00,-999.00,-999.0,no,no,no,300234060798460,IMB,AWI-USIABP,unknown,South
2015-02-04T04:00:28Z,1423022429,2015,4,0,35.167,35.167,-70.55138,-7.99307,-999.00,-999.00,-999.0,no,no,no,300234060798460,IMB,AWI-USIABP,unknown,South
2015-02-04T10:00:28Z,1423044029,2015,10,0,35.417,35.417,-70.55605,-7.88642,-999.00,-999.00,-999.0,no,no,no,300234060798460,IMB,AWI-USIABP,unknown,South
2015-02-04T16:00:28Z,1423065629,2015,16,0,35.667,35.667,-70.51788,-7.97812,-999.00,-999.00,-999.0,no,no,no,300234060798460,IMB,AWI-USIABP,unknown,South